This demonstration page uses our WeatherBlox Daily Observations layout. Learn more.

Left ArrowRight Arrow

Hourly Observations for December 25, 2020

Temp ( °F °C ) Dew Point ( °F °C ) Humidity (%) Winds ( mph kmh ) Pressure ( in mb ) Visibility ( mi km ) Precip ( " mm )
12:52 am 00:52 Clear 4 -15.6 -4 -20 69 69 NW 7 11 30.26 1025 10 16 0.00 0.00
1:52 am 01:52 Clear 4 -15.6 -4 -20 69 69 NW 5 7 30.24 1024 10 16 0.00 0.00
2:52 am 02:52 Clear 6 -14.4 -4 -20 63 63 Calm 30.23 1024 10 16 0.00 0.00
3:52 am 03:52 Clear 5 -15 -2 -18.9 72 72 Calm 30.23 1024 10 16 0.00 0.00
4:52 am 04:52 Clear 5 -15 -1 -18.3 76 76 Calm 30.21 1023 10 16 0.00 0.00
5:52 am 05:52 Clear 5 -15 0 -17.8 79 79 ESE 3 6 30.20 1023 10 16 0.00 0.00
6:52 am 06:52 Clear 7 -13.9 0 -17.8 73 73 SSE 8 13 30.20 1023 10 16 0.00 0.00
7:52 am 07:52 Sunny 6 -14.4 0 -17.8 76 76 SSE 10 17 30.19 1022 10 16 0.00 0.00
8:52 am 08:52 Sunny 9 -12.8 1 -17.2 70 70 S 8 13 30.19 1022 10 16 0.00 0.00
9:52 am 09:52 Sunny 12 -11.1 2 -16.7 64 64 SSE 13 20 30.18 1022 10 16 0.00 0.00
10:52 am 10:52 Sunny 15 -9.4 4 -15.6 61 61 SSE 13 20 30.16 1021 10 16 0.00 0.00
11:52 am 11:52 Sunny 21 -6.1 9 -12.8 59 59 S 10 17 30.11 1020 10 16 0.00 0.00
12:52 pm 12:52 Sunny 26 -3.3 15 -9.4 63 63 SSW 12 19 30.07 1018 10 16 0.00 0.00
1:52 pm 13:52 Sunny 29 -1.7 17 -8.3 61 61 SSW 12 19 30.04 1017 10 16 0.00 0.00
2:52 pm 14:52 Sunny 31 -0.6 20 -6.7 64 64 SSW 8 13 30.03 1017 10 16 0.00 0.00
3:52 pm 15:52 Sunny 34 1.1 22 -5.6 61 61 SW 9 15 30.02 1017 10 16 0.00 0.00
4:52 pm 16:52 Sunny 32 0 22 -5.6 66 66 S 5 7 30.01 1016 10 16 0.00 0.00
5:52 pm 17:52 Mostly Clear 26 -3.3 20 -6.7 78 78 SE 7 11 30.01 1016 10 16 0.00 0.00
6:52 pm 18:52 Mostly Clear 25 -3.9 20 -6.7 81 81 SSE 7 11 30.00 1016 10 16 0.00 0.00
7:52 pm 19:52 Mostly Clear 23 -5 19 -7.2 85 85 SE 7 11 30.00 1016 10 16 0.00 0.00
8:52 pm 20:52 Mostly Clear 26 -3.3 22 -5.6 84 84 S 3 6 30.00 1016 10 16 0.00 0.00
9:52 pm 21:52 Partly Cloudy 24 -4.4 21 -6.1 88 88 Calm 30.00 1016 10 16 0.00 0.00
10:52 pm 22:52 Mostly Cloudy 20 -6.7 19 -7.2 96 96 NW 5 7 30.01 1016 10 16 0.00 0.00
11:52 pm 23:52 Mostly Cloudy 21 -6.1 19 -7.2 92 92 W 3 6 30.01 1016 10 16 0.00 0.00

Powered by AerisWeather